,,,PA_Meas_PMT16A,,PR_Meas_QMR101_102,,RH_Meas_QMH101,,SR_Meas_QMS101,,TA_Meas_QMH101,,GenWind,,GenWind,
date,time,status,PA,status,PR,status,RH,status,SR,status,TA,status,DirAvg,status,SpdAvg,
2008-09-11, 00:00:04,VALID,1009.45,VALID,0,VALID,94.9254,VALID,0,VALID,24.0058,VALID,28,VALID,0.347266,
2008-09-11, 00:01:04,VALID,1009.41,VALID,0,VALID,94.9254,VALID,0,VALID,24.0058,VALID,3,VALID,0.378906,
2008-09-11, 00:02:04,VALID,1009.4,VALID,0,VALID,94.9483,VALID,0,VALID,24.0058,VALID,347,VALID,0.377344,
2008-09-11, 00:03:04,VALID,1009.36,VALID,0,VALID,94.9635,VALID,0,VALID,24.0058,VALID,347,VALID,0.344922,
2008-09-11, 00:04:04,VALID,1009.37,VALID,0,VALID,94.994,VALID,0,VALID,23.9863,VALID,347,VALID,0.179688,
2008-09-11, 00:05:04,VALID,1009.37,VALID,0,VALID,94.9711,VALID,0,VALID,23.9863,VALID,347,VALID,0.114063,
2008-09-11, 00:06:04,VALID,1009.4,VALID,0,VALID,94.9711,VALID,0.105969,VALID,23.965,VALID,347,VALID,0.144531,
2008-09-11, 00:07:04,VALID,1009.39,VALID,0,VALID,94.9635,VALID,0.105969,VALID,23.965,VALID,347,VALID,0,
2008-09-11, 00:08:04,VALID,1009.37,VALID,0,VALID,94.9788,VALID,0,VALID,23.9455,VALID,347,VALID,0,
2008-09-11, 00:09:04,VALID,1009.37,VALID,0,VALID,94.9864,VALID,0.105969,VALID,23.926,VALID,347,VALID,0,
2008-09-11, 00:10:04,VALID,1009.36,VALID,0,VALID,94.994,VALID,0.105969,VALID,23.926,VALID,347,VALID,0,
2008-09-11, 00:11:04,VALID,1009.35,VALID,0,VALID,95.0093,VALID,0,VALID,23.926,VALID,347,VALID,0,
2008-09-11, 00:12:04,VALID,1009.33,VALID,0,VALID,95.0016,VALID,0.105969,VALID,23.9047,VALID,347,VALID,0,
2008-09-11, 00:13:04,VALID,1009.34,VALID,0,VALID,95.0321,VALID,0.105969,VALID,23.926,VALID,347,VALID,0.132422,
2008-09-11, 00:14:04,VALID,1009.33,VALID,0,VALID,95.055,VALID,0.105969,VALID,23.9065,VALID,347,VALID,0.146875,
2008-09-11, 00:15:04,VALID,1009.37,VALID,0,VALID,95.0474,VALID,0,VALID,23.9065,VALID,347,VALID,0.0175781,
2008-09-11, 00:16:04,VALID,1009.35,VALID,0,VALID,95.0474,VALID,0.105969,VALID,23.9065,VALID,347,VALID,0,
2008-09-11, 00:17:04,VALID,1009.36,VALID,0,VALID,95.055,VALID,0,VALID,23.8871,VALID,347,VALID,0,
2008-09-11, 00:18:04,VALID,1009.34,VALID,0,VALID,95.0779,VALID,0.105969,VALID,23.8871,VALID,347,VALID,0,
2008-09-11, 00:19:04,VALID,1009.37,VALID,0,VALID,95.0855,VALID,0,VALID,23.8676,VALID,347,VALID,0.170703,
2008-09-11, 00:20:04,VALID,1009.36,VALID,0,VALID,95.1084,VALID,0.105969,VALID,23.8676,VALID,347,VALID,0.11875,
2008-09-11, 00:21:04,VALID,1009.39,VALID,0,VALID,95.0931,VALID,0,VALID,23.9084,VALID,347,VALID,0.0199219,
2008-09-11, 00:22:04,VALID,1009.42,VALID,0,VALID,95.1313,VALID,0,VALID,23.9084,VALID,347,VALID,0.130078,
2008-09-11, 00:23:04,VALID,1009.45,VALID,0,VALID,95.1236,VALID,0,VALID,23.8694,VALID,347,VALID,0.184766,
2008-09-11, 00:24:04,VALID,1009.44,VALID,0,VALID,95.1389,VALID,0,VALID,23.8481,VALID,347,VALID,0.235938,
2008-09-11, 00:25:04,VALID,1009.45,VALID,0,VALID,95.1465,VALID,0,VALID,23.8286,VALID,347,VALID,0.264062,
2008-09-11, 00:26:04,VALID,1009.44,VALID,0,VALID,95.1465,VALID,0,VALID,23.8286,VALID,347,VALID,0,
2008-09-11, 00:27:04,VALID,1009.45,VALID,0,VALID,95.1389,VALID,0,VALID,23.8286,VALID,39,VALID,0.471875,
2008-09-11, 00:28:04,VALID,1009.44,VALID,0,VALID,95.1618,VALID,0,VALID,23.8286,VALID,56,VALID,0.520703,
2008-09-11, 00:29:04,VALID,1009.45,VALID,0,VALID,95.1694,VALID,0,VALID,23.8286,VALID,57,VALID,0.396484,
2008-09-11, 00:30:04,VALID,1009.49,VALID,0,VALID,95.1847,VALID,0,VALID,23.8091,VALID,57,VALID,0.180078,
2008-09-11, 00:31:04,VALID,1009.47,VALID,0,VALID,95.1923,VALID,0.105969,VALID,23.8091,VALID,57,VALID,0.205859,
2008-09-11, 00:32:04,VALID,1009.51,VALID,0,VALID,95.177,VALID,0,VALID,23.8109,VALID,57,VALID,0.335547,
2008-09-11, 00:33:04,VALID,1009.51,VALID,0,VALID,95.1694,VALID,0.105969,VALID,23.7701,VALID,57,VALID,0.398438,
2008-09-11, 00:34:04,VALID,1009.53,VALID,0,VALID,95.1999,VALID,0,VALID,23.7896,VALID,58,VALID,0.329297,
2008-09-11, 00:35:04,VALID,1009.52,VALID,0,VALID,95.2228,VALID,0,VALID,23.7896,VALID,77,VALID,0.705859,
2008-09-11, 00:36:04,VALID,1009.51,VALID,0,VALID,95.2152,VALID,0.105969,VALID,23.7896,VALID,64,VALID,0.540625,
2008-09-11, 00:37:04,VALID,1009.46,VALID,0,VALID,95.2152,VALID,0.105969,VALID,23.7896,VALID,65,VALID,0.505859,
2008-09-11, 00:38:04,VALID,1009.45,VALID,0,VALID,95.2304,VALID,0,VALID,23.7896,VALID,64,VALID,0.328125,
2008-09-11, 00:39:04,VALID,1009.47,VALID,0,VALID,95.2457,VALID,0,VALID,23.8091,VALID,64,VALID,0.305859,
2008-09-11, 00:40:04,VALID,1009.46,VALID,0,VALID,95.2609,VALID,0.105969,VALID,23.8286,VALID,67,VALID,0.343359,
2008-09-11, 00:41:04,VALID,1009.46,VALID,0,VALID,95.2685,VALID,0,VALID,23.8091,VALID,67,VALID,0,
2008-09-11, 00:42:04,VALID,1009.42,VALID,0,VALID,95.2304,VALID,0.105969,VALID,23.7701,VALID,67,VALID,0.202344,
2008-09-11, 00:43:04,VALID,1009.44,VALID,0,VALID,95.2533,VALID,0,VALID,23.7896,VALID,67,VALID,0.00742187,
2008-09-11, 00:44:04,VALID,1009.41,VALID,0,VALID,95.2533,VALID,0.105969,VALID,23.7896,VALID,67,VALID,0.229297,
2008-09-11, 00:45:04,VALID,1009.4,VALID,0,VALID,95.2685,VALID,0,VALID,23.8091,VALID,67,VALID,0,
2008-09-11, 00:46:04,VALID,1009.37,VALID,0,VALID,95.2609,VALID,0.105969,VALID,23.8304,VALID,67,VALID,0,
2008-09-11, 00:47:04,VALID,1009.33,VALID,0,VALID,95.2685,VALID,0,VALID,23.8091,VALID,67,VALID,0.153516,
2008-09-11, 00:48:04,VALID,1009.31,VALID,0,VALID,95.2685,VALID,0.105969,VALID,23.7896,VALID,57,VALID,0.294922,
2008-09-11, 00:49:04,VALID,1009.3,VALID,0,VALID,95.2609,VALID,0.105969,VALID,23.7701,VALID,53,VALID,0.297266,
2008-09-11, 00:50:04,VALID,1009.31,VALID,0,VALID,95.2304,VALID,0,VALID,23.7896,VALID,53,VALID,0.135156,
2008-09-11, 00:51:04,VALID,1009.3,VALID,0,VALID,95.238,VALID,0.105969,VALID,23.7701,VALID,53,VALID,0,
2008-09-11, 00:52:04,VALID,1009.28,VALID,0,VALID,95.2304,VALID,0.105969,VALID,23.7489,VALID,53,VALID,0,
2008-09-11, 00:53:04,VALID,1009.25,VALID,0,VALID,95.2457,VALID,0,VALID,23.7507,VALID,53,VALID,0,
2008-09-11, 00:54:04,VALID,1009.23,VALID,0,VALID,95.2533,VALID,0,VALID,23.7507,VALID,53,VALID,0,
2008-09-11, 00:55:04,VALID,1009.2,VALID,0,VALID,95.2609,VALID,0,VALID,23.7507,VALID,53,VALID,0,
2008-09-11, 00:56:04,VALID,1009.21,VALID,0,VALID,95.238,VALID,0,VALID,23.7507,VALID,53,VALID,0,
2008-09-11, 00:57:04,VALID,1009.19,VALID,0,VALID,95.2685,VALID,0,VALID,23.7701,VALID,53,VALID,0,
2008-09-11, 00:58:04,VALID,1009.19,VALID,0,VALID,95.2609,VALID,0.105969,VALID,23.7914,VALID,53,VALID,0.152734,
2008-09-11, 00:59:04,VALID,1009.18,VALID,0,VALID,95.2762,VALID,0.105969,VALID,23.7914,VALID,53,VALID,0.0898438,
2008-09-11, 01:00:04,VALID,1009.19,VALID,0,VALID,95.2838,VALID,0,VALID,23.7701,VALID,53,VALID,0.154687,
2008-09-11, 01:01:04,VALID,1009.16,VALID,0,VALID,95.2838,VALID,0.105969,VALID,23.7896,VALID,66,VALID,0.348437,
2008-09-11, 01:02:04,VALID,1009.17,VALID,0,VALID,95.299,VALID,0.105969,VALID,23.7896,VALID,66,VALID,0.0234375,
2008-09-11, 01:03:04,VALID,1009.17,VALID,0,VALID,95.299,VALID,0,VALID,23.8091,VALID,66,VALID,0,
2008-09-11, 01:04:04,VALID,1009.15,VALID,0,VALID,95.2838,VALID,0.105969,VALID,23.7896,VALID,66,VALID,0.349609,
2008-09-11, 01:05:04,VALID,1009.15,VALID,0,VALID,95.299,VALID,0,VALID,23.8091,VALID,64,VALID,0.324219,
2008-09-11, 01:06:04,VALID,1009.15,VALID,0,VALID,95.299,VALID,0.105969,VALID,23.8091,VALID,64,VALID,0.262109,
2008-09-11, 01:07:04,VALID,1009.13,VALID,0,VALID,95.299,VALID,0,VALID,23.8091,VALID,63,VALID,0.150391,
2008-09-11, 01:08:04,VALID,1009.12,VALID,0,VALID,95.2838,VALID,0.105969,VALID,23.7896,VALID,63,VALID,0.198437,
2008-09-11, 01:09:04,VALID,1009.11,VALID,0,VALID,95.2838,VALID,0.105969,VALID,23.8091,VALID,64,VALID,0.0914062,
2008-09-11, 01:10:04,VALID,1009.08,VALID,0,VALID,95.2762,VALID,0,VALID,23.8091,VALID,64,VALID,0.311719,
2008-09-11, 01:11:04,VALID,1009.09,VALID,0,VALID,95.2914,VALID,0.105969,VALID,23.8499,VALID,64,VALID,0.179688,
2008-09-11, 01:12:04,VALID,1009.07,VALID,0,VALID,95.2914,VALID,0,VALID,23.8481,VALID,64,VALID,0.170703,
2008-09-11, 01:13:04,VALID,1009.04,VALID,0,VALID,95.299,VALID,0,VALID,23.8676,VALID,86,VALID,0.419922,
2008-09-11, 01:14:04,VALID,1009.04,VALID,0,VALID,95.2838,VALID,0.105969,VALID,23.8676,VALID,86,VALID,0.422656,
2008-09-11, 01:15:04,VALID,1009,VALID,0,VALID,95.2914,VALID,0.105969,VALID,23.8676,VALID,86,VALID,0.378125,
2008-09-11, 01:16:04,VALID,1009,VALID,0,VALID,95.2685,VALID,0,VALID,23.8676,VALID,86,VALID,0.553125,
2008-09-11, 01:17:04,VALID,1009.01,VALID,0,VALID,95.2533,VALID,0.105969,VALID,23.8481,VALID,86,VALID,0.364453,
2008-09-11, 01:18:04,VALID,1008.97,VALID,0,VALID,95.2304,VALID,0,VALID,23.8676,VALID,86,VALID,0.346875,
2008-09-11, 01:19:04,VALID,1008.97,VALID,0,VALID,95.2457,VALID,0,VALID,23.9084,VALID,86,VALID,0.230859,
2008-09-11, 01:20:04,VALID,1008.95,VALID,0,VALID,95.2152,VALID,0,VALID,23.9473,VALID,86,VALID,0.421875,
2008-09-11, 01:21:04,VALID,1008.92,VALID,0,VALID,95.1999,VALID,0,VALID,23.9065,VALID,86,VALID,0.221484,
2008-09-11, 01:22:04,VALID,1008.9,VALID,0,VALID,95.1999,VALID,0,VALID,23.9065,VALID,86,VALID,0.158594,
2008-09-11, 01:23:04,VALID,1008.9,VALID,0,VALID,95.1694,VALID,0.105969,VALID,23.9278,VALID,86,VALID,0,
2008-09-11, 01:24:04,VALID,1008.89,VALID,0,VALID,95.1618,VALID,0,VALID,23.926,VALID,86,VALID,0,
2008-09-11, 01:25:04,VALID,1008.87,VALID,0,VALID,95.1465,VALID,0.105969,VALID,23.9473,VALID,86,VALID,0,
2008-09-11, 01:26:04,VALID,1008.88,VALID,0,VALID,95.116,VALID,0.105969,VALID,23.926,VALID,86,VALID,0,
2008-09-11, 01:27:04,VALID,1008.88,VALID,0,VALID,95.0779,VALID,0.105969,VALID,23.9455,VALID,86,VALID,0.196484,
2008-09-11, 01:28:04,VALID,1008.84,VALID,0,VALID,95.0779,VALID,0.105969,VALID,23.9455,VALID,86,VALID,0.175,
2008-09-11, 01:29:04,VALID,1008.86,VALID,0,VALID,95.0626,VALID,0.105969,VALID,23.9455,VALID,86,VALID,0.129688,
2008-09-11, 01:30:04,VALID,1008.84,VALID,0,VALID,95.0703,VALID,0.105969,VALID,23.9455,VALID,86,VALID,0,
2008-09-11, 01:31:04,VALID,1008.8,VALID,0,VALID,95.0398,VALID,0.105969,VALID,23.9863,VALID,86,VALID,0,
2008-09-11, 01:32:04,VALID,1008.79,VALID,0,VALID,95.0245,VALID,0.105969,VALID,23.9863,VALID,86,VALID,0,
2008-09-11, 01:33:04,VALID,1008.76,VALID,0,VALID,95.0245,VALID,0.105969,VALID,23.965,VALID,86,VALID,0,
2008-09-11, 01:34:04,VALID,1008.77,VALID,0,VALID,94.994,VALID,0,VALID,23.9455,VALID,85,VALID,0.387109,
2008-09-11, 01:35:04,VALID,1008.78,VALID,0,VALID,95.0016,VALID,0.105969,VALID,23.926,VALID,77,VALID,0.723047,
2008-09-11, 01:36:04,VALID,1008.75,VALID,0,VALID,94.9711,VALID,0.105969,VALID,23.9455,VALID,72,VALID,0.858203,
2008-09-11, 01:37:04,VALID,1008.76,VALID,0,VALID,94.933,VALID,0,VALID,23.9455,VALID,72,VALID,0.882813,
2008-09-11, 01:38:04,VALID,1008.73,VALID,0,VALID,94.9178,VALID,0.105969,VALID,23.965,VALID,72,VALID,0.470313,
2008-09-11, 01:39:04,VALID,1008.72,VALID,0,VALID,94.8796,VALID,0.105969,VALID,23.965,VALID,79,VALID,0.46875,
2008-09-11, 01:40:04,VALID,1008.71,VALID,0,VALID,94.8186,VALID,0.105969,VALID,23.9437,VALID,84,VALID,0.572266,
2008-09-11, 01:41:04,VALID,1008.68,VALID,0,VALID,94.7729,VALID,0.105969,VALID,23.9455,VALID,84,VALID,0.510547,
2008-09-11, 01:42:04,VALID,1008.64,VALID,0,VALID,94.7195,VALID,0.105969,VALID,23.9455,VALID,105,VALID,0.837891,
2008-09-11, 01:43:04,VALID,1008.63,VALID,0,VALID,94.6661,VALID,0,VALID,23.9455,VALID,101,VALID,0.644922,
2008-09-11, 01:44:04,VALID,1008.62,VALID,0,VALID,94.6051,VALID,0.105969,VALID,23.9455,VALID,100,VALID,0.573047,
2008-09-11, 01:45:04,VALID,1008.6,VALID,0,VALID,94.567,VALID,0.105969,VALID,23.9437,VALID,103,VALID,0.375781,
2008-09-11, 01:46:04,VALID,1008.56,VALID,0,VALID,94.4755,VALID,0.105969,VALID,23.965,VALID,96,VALID,0.690234,
2008-09-11, 01:47:04,VALID,1008.58,VALID,0,VALID,94.3763,VALID,0.105969,VALID,23.965,VALID,93,VALID,0.600391,
2008-09-11, 01:48:04,VALID,1008.52,VALID,0,VALID,94.3001,VALID,0.105969,VALID,23.9845,VALID,96,VALID,0.260547,
2008-09-11, 01:49:04,VALID,1008.5,VALID,0,VALID,94.2467,VALID,0.105969,VALID,23.9845,VALID,94,VALID,0.310937,
2008-09-11, 01:50:04,VALID,1008.49,VALID,0,VALID,94.1247,VALID,0.105969,VALID,23.9845,VALID,83,VALID,0.216797,
2008-09-11, 01:51:04,VALID,1008.47,VALID,0,VALID,93.995,VALID,0,VALID,23.9845,VALID,83,VALID,0.190234,
2008-09-11, 01:52:04,VALID,1008.43,VALID,0,VALID,93.8807,VALID,0,VALID,23.9668,VALID,79,VALID,0.508984,
2008-09-11, 01:53:04,VALID,1008.44,VALID,0,VALID,93.8044,VALID,0,VALID,23.9863,VALID,79,VALID,0.225391,
2008-09-11, 01:54:04,VALID,1008.41,VALID,0,VALID,93.7586,VALID,0,VALID,24.0058,VALID,79,VALID,0.207031,
2008-09-11, 01:55:04,VALID,1008.42,VALID,0,VALID,93.7281,VALID,0,VALID,23.9863,VALID,79,VALID,0.115625,
2008-09-11, 01:56:04,VALID,1008.42,VALID,0,VALID,93.7053,VALID,0,VALID,23.9863,VALID,79,VALID,0.314453,
2008-09-11, 01:57:04,VALID,1008.43,VALID,0,VALID,93.7205,VALID,0,VALID,23.9863,VALID,77,VALID,0.470703,
2008-09-11, 01:58:04,VALID,1008.39,VALID,0,VALID,93.7586,VALID,0,VALID,23.9668,VALID,75,VALID,0.00585938,
2008-09-11, 01:59:04,VALID,1008.42,VALID,0,VALID,93.812,VALID,0,VALID,23.9668,VALID,73,VALID,0.281641,
2008-09-11, 02:00:04,VALID,1008.38,VALID,0,VALID,93.7739,VALID,0,VALID,23.9491,VALID,74,VALID,0.487891,
2008-09-11, 02:01:04,VALID,1008.37,VALID,0,VALID,93.8273,VALID,0,VALID,23.926,VALID,74,VALID,0.214844,
2008-09-11, 02:02:04,VALID,1008.39,VALID,0,VALID,93.7815,VALID,0,VALID,23.9084,VALID,74,VALID,0.564453,
2008-09-11, 02:03:04,VALID,1008.42,VALID,0,VALID,93.7586,VALID,0,VALID,23.9297,VALID,76,VALID,0.468359,
2008-09-11, 02:04:04,VALID,1008.41,VALID,0,VALID,93.8425,VALID,0,VALID,23.9084,VALID,89,VALID,0.157813,
2008-09-11, 02:05:04,VALID,1008.41,VALID,0,VALID,93.8883,VALID,0,VALID,23.8889,VALID,89,VALID,0.228125,
2008-09-11, 02:06:04,VALID,1008.42,VALID,0,VALID,93.9493,VALID,0.105969,VALID,23.8871,VALID,89,VALID,0.179688,
2008-09-11, 02:07:04,VALID,1008.41,VALID,0,VALID,94.0027,VALID,0.105969,VALID,23.8676,VALID,89,VALID,0.252734,
2008-09-11, 02:08:04,VALID,1008.44,VALID,0,VALID,94.056,VALID,0.105969,VALID,23.8676,VALID,45,VALID,0.402344,
2008-09-11, 02:09:04,VALID,1008.41,VALID,0,VALID,94.056,VALID,0.105969,VALID,23.8676,VALID,9,VALID,0.444531,
2008-09-11, 02:10:04,VALID,1008.38,VALID,0,VALID,94.056,VALID,0.105969,VALID,23.8481,VALID,8,VALID,0.342578,
2008-09-11, 02:11:04,VALID,1008.38,VALID,0,VALID,94.0865,VALID,0,VALID,23.8481,VALID,8,VALID,0.310547,
2008-09-11, 02:12:04,VALID,1008.35,VALID,0,VALID,94.0865,VALID,0,VALID,23.8286,VALID,8,VALID,0.195703,
2008-09-11, 02:13:04,VALID,1008.32,VALID,0,VALID,94.1171,VALID,0.105969,VALID,23.8073,VALID,8,VALID,0.140625,
2008-09-11, 02:14:04,VALID,1008.31,VALID,0,VALID,94.1552,VALID,0.105969,VALID,23.7878,VALID,8,VALID,0.278906,
2008-09-11, 02:15:04,VALID,1008.29,VALID,0,VALID,94.2162,VALID,0.105969,VALID,23.7896,VALID,55,VALID,0.437109,
2008-09-11, 02:16:04,VALID,1008.28,VALID,0,VALID,94.3077,VALID,0.105969,VALID,23.7683,VALID,56,VALID,0.448828,
2008-09-11, 02:17:04,VALID,1008.28,VALID,0,VALID,94.4068,VALID,0.105969,VALID,23.7701,VALID,56,VALID,0.0738281,
2008-09-11, 02:18:04,VALID,1008.27,VALID,0,VALID,94.4526,VALID,0.105969,VALID,23.7878,VALID,56,VALID,0.2375,
2008-09-11, 02:19:04,VALID,1008.25,VALID,0,VALID,94.5212,VALID,0,VALID,23.7701,VALID,56,VALID,0,
2008-09-11, 02:20:04,VALID,1008.26,VALID,0,VALID,94.5365,VALID,0.105969,VALID,23.7507,VALID,55,VALID,0.248047,
2008-09-11, 02:21:04,VALID,1008.26,VALID,0,VALID,94.567,VALID,0.105969,VALID,23.7312,VALID,8,VALID,0.121484,
2008-09-11, 02:22:04,VALID,1008.28,VALID,0,VALID,94.5898,VALID,0.105969,VALID,23.7312,VALID,8,VALID,0.182812,
2008-09-11, 02:23:04,VALID,1008.27,VALID,0,VALID,94.6432,VALID,0.105969,VALID,23.7507,VALID,2,VALID,0.276563,
2008-09-11, 02:24:04,VALID,1008.3,VALID,0,VALID,94.689,VALID,0.105969,VALID,23.7525,VALID,338,VALID,0.162109,
2008-09-11, 02:25:04,VALID,1008.28,VALID,0,VALID,94.7347,VALID,0.105969,VALID,23.7312,VALID,338,VALID,0.126563,
2008-09-11, 02:26:04,VALID,1008.29,VALID,0,VALID,94.75,VALID,0.105969,VALID,23.7312,VALID,338,VALID,0.156641,
2008-09-11, 02:27:04,VALID,1008.3,VALID,0,VALID,94.7729,VALID,0.105969,VALID,23.7312,VALID,338,VALID,0.139062,
2008-09-11, 02:28:04,VALID,1008.3,VALID,0,VALID,94.811,VALID,0.105969,VALID,23.733,VALID,338,VALID,0,
2008-09-11, 02:29:04,VALID,1008.32,VALID,0,VALID,94.8262,VALID,0.105969,VALID,23.7117,VALID,338,VALID,0,
2008-09-11, 02:30:04,VALID,1008.33,VALID,0,VALID,94.8568,VALID,0,VALID,23.7117,VALID,338,VALID,0,
2008-09-11, 02:31:04,VALID,1008.37,VALID,0,VALID,94.8491,VALID,0.105969,VALID,23.7117,VALID,4,VALID,0.136328,
2008-09-11, 02:32:04,VALID,1008.39,VALID,0,VALID,94.8873,VALID,0.105969,VALID,23.7117,VALID,4,VALID,0.229687,
2008-09-11, 02:33:04,VALID,1008.39,VALID,0,VALID,94.9178,VALID,0,VALID,23.7312,VALID,4,VALID,0.122266,
2008-09-11, 02:34:04,VALID,1008.38,VALID,0,VALID,94.9254,VALID,0.105969,VALID,23.7312,VALID,4,VALID,0.301562,
2008-09-11, 02:35:04,VALID,1008.37,VALID,0,VALID,94.9635,VALID,0.105969,VALID,23.7294,VALID,4,VALID,0.0308594,
2008-09-11, 02:36:04,VALID,1008.39,VALID,0,VALID,94.9788,VALID,0,VALID,23.7117,VALID,4,VALID,0.175,
2008-09-11, 02:37:04,VALID,1008.4,VALID,0,VALID,94.9711,VALID,0,VALID,23.7117,VALID,4,VALID,0.102344,
2008-09-11, 02:38:04,VALID,1008.41,VALID,0,VALID,94.9711,VALID,0,VALID,23.7135,VALID,4,VALID,0.00820312,
2008-09-11, 02:39:04,VALID,1008.41,VALID,0,VALID,94.9711,VALID,0,VALID,23.7135,VALID,4,VALID,0.00976563,
2008-09-11, 02:40:04,VALID,1008.43,VALID,0,VALID,94.9483,VALID,0,VALID,23.7135,VALID,4,VALID,0,
2008-09-11, 02:41:04,VALID,1008.44,VALID,0,VALID,94.9711,VALID,0,VALID,23.7135,VALID,4,VALID,0,
2008-09-11, 02:42:04,VALID,1008.43,VALID,0,VALID,94.9711,VALID,0,VALID,23.7135,VALID,4,VALID,0,
2008-09-11, 02:43:04,VALID,1008.43,VALID,0,VALID,94.9788,VALID,0,VALID,23.7135,VALID,4,VALID,0,
2008-09-11, 02:44:04,VALID,1008.41,VALID,0,VALID,95.0016,VALID,0,VALID,23.733,VALID,4,VALID,0,
2008-09-11, 02:45:04,VALID,1008.4,VALID,0,VALID,95.0016,VALID,0,VALID,23.733,VALID,4,VALID,0,
2008-09-11, 02:46:04,VALID,1008.4,VALID,0,VALID,95.0093,VALID,0,VALID,23.7525,VALID,4,VALID,0,
2008-09-11, 02:47:04,VALID,1008.39,VALID,0,VALID,95.0169,VALID,0,VALID,23.7312,VALID,4,VALID,0,
2008-09-11, 02:48:04,VALID,1008.37,VALID,0,VALID,95.0169,VALID,0,VALID,23.7312,VALID,4,VALID,0,
2008-09-11, 02:49:04,VALID,1008.38,VALID,0,VALID,95.0245,VALID,0,VALID,23.7525,VALID,4,VALID,0,
2008-09-11, 02:50:04,VALID,1008.38,VALID,0,VALID,95.0398,VALID,0,VALID,23.7507,VALID,4,VALID,0,
2008-09-11, 02:51:04,VALID,1008.38,VALID,0,VALID,95.0321,VALID,0.105969,VALID,23.7701,VALID,4,VALID,0,
2008-09-11, 02:52:04,VALID,1008.38,VALID,0,VALID,95.0398,VALID,0.105969,VALID,23.7701,VALID,4,VALID,0.0132813,
2008-09-11, 02:53:04,VALID,1008.37,VALID,0,VALID,95.0626,VALID,0.105969,VALID,23.7878,VALID,4,VALID,0.193359,
2008-09-11, 02:54:04,VALID,1008.38,VALID,0,VALID,95.0626,VALID,0.105969,VALID,23.8091,VALID,4,VALID,0.130859,
2008-09-11, 02:55:04,VALID,1008.38,VALID,0,VALID,95.0626,VALID,0.105969,VALID,23.8286,VALID,4,VALID,0.337891,
2008-09-11, 02:56:04,VALID,1008.38,VALID,0,VALID,95.0474,VALID,0.105969,VALID,23.8286,VALID,4,VALID,0.265234,
2008-09-11, 02:57:04,VALID,1008.39,VALID,0,VALID,95.0321,VALID,0.211938,VALID,23.8073,VALID,355,VALID,0.258984,
2008-09-11, 02:58:04,VALID,1008.42,VALID,0,VALID,95.0016,VALID,0.105969,VALID,23.8286,VALID,355,VALID,0.367578,
2008-09-11, 02:59:04,VALID,1008.41,VALID,0,VALID,94.9788,VALID,0.105969,VALID,23.8091,VALID,355,VALID,0.148828,
2008-09-11, 03:00:04,VALID,1008.42,VALID,0,VALID,94.9864,VALID,0.105969,VALID,23.8286,VALID,355,VALID,0.240625,
2008-09-11, 03:01:04,VALID,1008.42,VALID,0,VALID,94.9635,VALID,0.105969,VALID,23.7896,VALID,355,VALID,0.247266,
2008-09-11, 03:02:04,VALID,1008.43,VALID,0,VALID,94.9788,VALID,0.211938,VALID,23.8481,VALID,355,VALID,0.277734,
2008-09-11, 03:03:04,VALID,1008.44,VALID,0,VALID,94.9483,VALID,0.105969,VALID,23.8073,VALID,355,VALID,0.321094,
2008-09-11, 03:04:04,VALID,1008.41,VALID,0,VALID,94.9864,VALID,0.105969,VALID,23.8286,VALID,350,VALID,0.245703,
2008-09-11, 03:05:04,VALID,1008.42,VALID,0,VALID,95.0093,VALID,0.105969,VALID,23.8871,VALID,350,VALID,0.256641,
2008-09-11, 03:06:04,VALID,1008.41,VALID,0,VALID,95.0093,VALID,0.105969,VALID,23.8871,VALID,334,VALID,0.404687,
2008-09-11, 03:07:04,VALID,1008.42,VALID,0,VALID,95.0093,VALID,0.105969,VALID,23.8676,VALID,334,VALID,0.148438,
2008-09-11, 03:08:04,VALID,1008.42,VALID,0,VALID,95.0245,VALID,0.105969,VALID,23.8871,VALID,304,VALID,0.197656,
2008-09-11, 03:09:04,VALID,1008.42,VALID,0,VALID,95.0093,VALID,0.105969,VALID,23.8871,VALID,304,VALID,0,
2008-09-11, 03:10:04,VALID,1008.45,VALID,0,VALID,95.0169,VALID,0.105969,VALID,23.9065,VALID,304,VALID,0,
2008-09-11, 03:11:04,VALID,1008.41,VALID,0,VALID,94.994,VALID,0.105969,VALID,23.9065,VALID,304,VALID,0,
2008-09-11, 03:12:04,VALID,1008.47,VALID,0,VALID,94.9559,VALID,0.105969,VALID,23.9065,VALID,304,VALID,0,
2008-09-11, 03:13:04,VALID,1008.47,VALID,0,VALID,94.9483,VALID,0.211938,VALID,23.8852,VALID,304,VALID,0,
2008-09-11, 03:14:04,VALID,1008.46,VALID,0,VALID,94.9559,VALID,0.105969,VALID,23.9455,VALID,304,VALID,0,
2008-09-11, 03:15:04,VALID,1008.5,VALID,0,VALID,94.9254,VALID,0.105969,VALID,23.9455,VALID,304,VALID,0,
2008-09-11, 03:16:04,VALID,1008.51,VALID,0,VALID,94.9025,VALID,0.105969,VALID,23.9242,VALID,304,VALID,0,
2008-09-11, 03:17:04,VALID,1008.5,VALID,0,VALID,94.9101,VALID,0.105969,VALID,23.965,VALID,304,VALID,0,
2008-09-11, 03:18:04,VALID,1008.49,VALID,0,VALID,94.9025,VALID,0,VALID,23.965,VALID,304,VALID,0,
2008-09-11, 03:19:04,VALID,1008.51,VALID,0,VALID,94.8949,VALID,0.105969,VALID,23.965,VALID,304,VALID,0.104297,
2008-09-11, 03:20:04,VALID,1008.52,VALID,0,VALID,94.9025,VALID,0.105969,VALID,23.9845,VALID,304,VALID,0.241016,
2008-09-11, 03:21:04,VALID,1008.52,VALID,0,VALID,94.9101,VALID,0,VALID,24.0058,VALID,288,VALID,0.30625,
2008-09-11, 03:22:04,VALID,1008.52,VALID,0,VALID,94.9254,VALID,0,VALID,24.0253,VALID,280,VALID,0.152344,
2008-09-11, 03:23:04,VALID,1008.53,VALID,0,VALID,94.8949,VALID,0,VALID,24.0253,VALID,280,VALID,0.162109,
2008-09-11, 03:24:04,VALID,1008.51,VALID,0,VALID,94.872,VALID,0,VALID,24.0253,VALID,280,VALID,0.10625,
2008-09-11, 03:25:04,VALID,1008.55,VALID,0,VALID,94.8491,VALID,0,VALID,24.0058,VALID,280,VALID,0.296484,
2008-09-11, 03:26:04,VALID,1008.54,VALID,0,VALID,94.8034,VALID,0,VALID,23.9863,VALID,285,VALID,0.259375,
2008-09-11, 03:27:04,VALID,1008.53,VALID,0,VALID,94.7576,VALID,0,VALID,23.9881,VALID,290,VALID,0.303906,
2008-09-11, 03:28:04,VALID,1008.57,VALID,0,VALID,94.7424,VALID,0,VALID,23.9278,VALID,290,VALID,0.232031,
2008-09-11, 03:29:04,VALID,1008.58,VALID,0,VALID,94.7042,VALID,0,VALID,23.9278,VALID,290,VALID,0.0457031,
2008-09-11, 03:30:04,VALID,1008.6,VALID,0,VALID,94.7347,VALID,0,VALID,23.9278,VALID,290,VALID,0,
2008-09-11, 03:31:04,VALID,1008.56,VALID,0,VALID,94.7271,VALID,0,VALID,23.9084,VALID,290,VALID,0.122266,
2008-09-11, 03:32:04,VALID,1008.58,VALID,0,VALID,94.7195,VALID,0,VALID,23.9297,VALID,290,VALID,0.328516,
2008-09-11, 03:33:04,VALID,1008.58,VALID,0,VALID,94.7347,VALID,0,VALID,23.8889,VALID,293,VALID,0.403906,
2008-09-11, 03:34:04,VALID,1008.59,VALID,0,VALID,94.75,VALID,0,VALID,23.8694,VALID,293,VALID,0.167969,
2008-09-11, 03:35:04,VALID,1008.59,VALID,0,VALID,94.7652,VALID,0,VALID,23.8499,VALID,293,VALID,0.335547,
2008-09-11, 03:36:04,VALID,1008.58,VALID,0,VALID,94.8034,VALID,0.105969,VALID,23.8481,VALID,293,VALID,0.286328,
2008-09-11, 03:37:04,VALID,1008.6,VALID,0,VALID,94.8186,VALID,0.105969,VALID,23.8286,VALID,293,VALID,0.29375,
2008-09-11, 03:38:04,VALID,1008.57,VALID,0,VALID,94.8262,VALID,0,VALID,23.8304,VALID,293,VALID,0.200391,
2008-09-11, 03:39:04,VALID,1008.57,VALID,0,VALID,94.872,VALID,0,VALID,23.8091,VALID,293,VALID,0.0140625,
2008-09-11, 03:40:04,VALID,1008.56,VALID,0,VALID,94.8796,VALID,0.105969,VALID,23.8109,VALID,293,VALID,0,
2008-09-11, 03:41:04,VALID,1008.56,VALID,0,VALID,94.9101,VALID,0.105969,VALID,23.7896,VALID,293,VALID,0,
2008-09-11, 03:42:04,VALID,1008.57,VALID,0,VALID,94.9178,VALID,0.105969,VALID,23.7896,VALID,293,VALID,0.237109,